CW7453 Bull Run Mountain VA US current weather conditions

sailwx.info

Wind from 323 at 3 knots

Air temperature 2.8° C
Dewpoint -0.9° C

Last reported at 2019-Dec-15 23:03 UTC.
Time now 2019-Dec-15 23:25 UTC

Location: N 38°55' W 077°40'.
View on Google Maps.

See reports from other nearby stations

  
Tides and Currents Weather Stations Pressure Air Temp Water Temp Dewpoint Dewpoint Depression Visibility Wind Speed Wind Dir Waves Ship Positions
date/time (UTC)wind fromknots sea level pressurealtimeterstation pressurevisibilityair tempwater tempwave heightnotes
2019-Dec-15 23:03 323 3 2.8
2019-Dec-15 22:53 333 4 2.8
2019-Dec-15 22:43 3.3
2019-Dec-15 22:33 336 1 3.3
2019-Dec-15 22:23 332 3 3.3
2019-Dec-15 22:13 337 1 3.9
2019-Dec-15 22:03 343 4 3.9
2019-Dec-15 21:53 330 2 4.4
2019-Dec-15 21:43 338 5 4.4
2019-Dec-15 21:33 346 3 5.0
2019-Dec-15 21:23 340 2 5.0
2019-Dec-15 21:13 333 3 5.6
2019-Dec-15 21:03 340 2 5.6
2019-Dec-15 20:53 340 1 6.1
2019-Dec-15 20:43 342 5 6.1
2019-Dec-15 20:33 342 4 6.7
2019-Dec-15 20:23 340 3 6.7
2019-Dec-15 20:13 010 2 7.2
2019-Dec-15 20:03 345 2 7.2
2019-Dec-15 19:53 336 3 7.2
2019-Dec-15 19:43 342 4 7.8
2019-Dec-15 19:33 327 2 7.8
2019-Dec-15 19:23 336 5 7.8
2019-Dec-15 19:13 340 1 8.3
2019-Dec-15 19:03 340 5 8.3
2019-Dec-15 18:53 341 5 8.3
2019-Dec-15 18:43 326 8.9
2019-Dec-15 18:33 341 6 8.9
2019-Dec-15 18:23 330 3 8.9
2019-Dec-15 18:13 339 5 8.9
2019-Dec-15 18:03 331 3 8.9
2019-Dec-15 17:53 337 3 8.9
2019-Dec-15 17:43 315 5 9.4
2019-Dec-15 17:33 343 9.4
2019-Dec-15 17:23 336 9.4
2019-Dec-15 17:13 333 5 8.9
2019-Dec-15 17:03 330 5 8.9
2019-Dec-15 16:53 293 4 8.9
2019-Dec-15 16:43 319 0 8.9
2019-Dec-15 16:33 328 6 8.3
2019-Dec-15 16:23 330 1 8.3
2019-Dec-15 16:13 310 3 7.8
2019-Dec-15 16:03 319 3 7.2
2019-Dec-15 15:53 328 3 6.7
2019-Dec-15 15:43 314 7.2
2019-Dec-15 15:33 343 0 7.2
2019-Dec-15 15:23 321 1 7.2
2019-Dec-15 15:13 298 4 7.8
2019-Dec-15 15:03 336 1 8.3
2019-Dec-15 14:53 331 0 8.3
2019-Dec-15 14:43 312 5 7.8
2019-Dec-15 14:33 300 0 7.2
2019-Dec-15 14:23 329 1 6.7
2019-Dec-15 14:13 333 6 6.7
2019-Dec-15 14:03 319 3 6.1
2019-Dec-15 13:53 332 3 5.0
2019-Dec-15 13:43 316 4.4
2019-Dec-15 13:33 344 3.9
2019-Dec-15 13:23 003 3.3
2019-Dec-15 13:13 324 2 2.8
2019-Dec-15 13:03 310 1 2.8
2019-Dec-15 12:53 321 2.2
2019-Dec-15 12:43 299 2.2
2019-Dec-15 12:33 298 1 2.2
2019-Dec-15 12:23 332 0 2.2
2019-Dec-15 12:13 320 2 2.2
2019-Dec-15 12:03 313 1 2.2
2019-Dec-15 11:53 310 1 2.2
2019-Dec-15 11:43 307 2.8
2019-Dec-15 11:33 319 3 2.8
2019-Dec-15 11:23 311 3 2.8
2019-Dec-15 11:13 314 0 2.8
2019-Dec-15 11:03 308 2 2.8
2019-Dec-15 10:53 302 2.8
2019-Dec-15 10:43 308 2.8
2019-Dec-15 10:33 311 2 3.3
2019-Dec-15 10:23 323 1 3.3
2019-Dec-15 10:13 323 3 2.8
2019-Dec-15 10:03 319 1 2.8
2019-Dec-15 09:53 320 2 2.8
2019-Dec-15 09:43 320 3.3
2019-Dec-15 09:33 320 2 3.3
2019-Dec-15 09:23 321 3.3
2019-Dec-15 09:13 319 2 3.3
2019-Dec-15 09:03 318 3.3
2019-Dec-15 08:53 318 2 3.3
2019-Dec-15 08:43 318 2 3.3
2019-Dec-15 08:33 318 1 3.3
2019-Dec-15 08:23 318 2 3.3
2019-Dec-15 08:13 309 0 3.3
2019-Dec-15 08:03 299 3 3.3
2019-Dec-15 07:53 299 3.3
2019-Dec-15 07:43 322 3.3
2019-Dec-15 07:33 315 1 3.3
2019-Dec-15 07:23 318 3.3
2019-Dec-15 07:13 322 3.3
2019-Dec-15 07:03 322 2 2.8
2019-Dec-15 06:53 318 1 2.8
2019-Dec-15 06:43 337 1 2.8
2019-Dec-15 06:33 317 1 2.8
2019-Dec-15 06:23 317 2 2.8
2019-Dec-15 06:13 335 3 2.8
2019-Dec-15 06:03 318 3 2.8
2019-Dec-15 05:53 323 3 2.2
2019-Dec-15 05:43 319 3 2.2
2019-Dec-15 05:33 309 3 2.2
2019-Dec-15 05:23 320 4 1.7
2019-Dec-15 05:13 341 2 1.7
2019-Dec-15 05:03 330 4 1.7
2019-Dec-15 04:53 329 2 1.7
2019-Dec-15 04:43 319 3 1.7
2019-Dec-15 04:33 348 2 1.7
2019-Dec-15 04:23 315 1 1.7
2019-Dec-15 04:13 320 1 1.7
2019-Dec-15 04:03 322 3 1.7
2019-Dec-15 03:53 322 4 1.7
2019-Dec-15 03:43 308 0 1.7
2019-Dec-15 03:33 329 2 2.2
2019-Dec-15 03:23 333 2 2.2
2019-Dec-15 03:13 336 3 2.2
2019-Dec-15 03:03 318 4 2.2
2019-Dec-15 02:53 328 1 2.8
2019-Dec-15 02:43 342 4 2.8
2019-Dec-15 02:33 335 11 2.8
2019-Dec-15 02:23 327 2 2.8
2019-Dec-15 02:13 324 3 3.3
2019-Dec-15 02:03 331 4 3.3
2019-Dec-15 01:53 308 5 3.3
2019-Dec-15 01:43 333 4 3.3
2019-Dec-15 01:33 338 6 3.3
2019-Dec-15 01:23 326 5 3.3
2019-Dec-15 01:13 336 7 3.3
2019-Dec-15 01:03 334 2 3.3
2019-Dec-15 00:53 327 4 3.9
2019-Dec-15 00:43 329 6 3.9
2019-Dec-15 00:33 330 5 3.9
2019-Dec-15 00:23 317 2 3.9
2019-Dec-15 00:13 327 4 3.9
2019-Dec-15 00:03 329 6 3.9
2019-Dec-14 23:53 331 9 4.4
2019-Dec-14 23:43 336 2 4.4
2019-Dec-14 23:33 325 4 4.4
2019-Dec-14 23:23 340 6 4.4
2019-Dec-14 23:13 341 6 4.4
2019-Dec-14 23:03 340 8 4.4
2019-Dec-14 22:53 330 6 4.4
2019-Dec-14 22:43 338 6 5.0
2019-Dec-14 22:33 310 5 5.0
2019-Dec-14 22:23 324 6 5.6
2019-Dec-14 22:13 336 7 5.6
2019-Dec-14 22:03 314 2 6.1
2019-Dec-14 21:53 328 2 6.1
2019-Dec-14 21:43 339 6 6.7
2019-Dec-14 21:33 331 5 6.7
2019-Dec-14 21:23 330 2 7.2
2019-Dec-14 21:03 320 3 7.2
2019-Dec-14 20:53 320 7.8
2019-Dec-14 20:43 320 7.8
2019-Dec-14 20:33 320 1 7.8
2019-Dec-14 20:23 323 7.8
2019-Dec-14 20:13 323 7.8
2019-Dec-14 20:03 323 3 7.8
2019-Dec-14 19:53 324 7.2
2019-Dec-14 19:43 324 7.8
2019-Dec-14 19:33 323 7.8
2019-Dec-14 19:23 324 7.2
2019-Dec-14 19:13 324 2 6.7
2019-Dec-14 19:03 324 6.7
2019-Dec-14 18:53 324 6.7
2019-Dec-14 18:43 323 6.1
2019-Dec-14 18:33 324 5.6
2019-Dec-14 18:23 324 5.6
2019-Dec-14 18:13 324 5.6
2019-Dec-14 18:03 323 5.6
2019-Dec-14 17:53 323 5.0
2019-Dec-14 17:43 324 5.0
2019-Dec-14 17:33 323 1 5.0
2019-Dec-14 17:23 324 3 4.4
2019-Dec-14 17:13 323 3 5.0
2019-Dec-14 17:04 323 0 5.0
2019-Dec-14 16:53 323 2 5.0
2019-Dec-14 16:43 323 3 5.0
2019-Dec-14 16:34 323 4.4
2019-Dec-14 16:23 323 3.9
2019-Dec-14 16:13 323 1 3.9
2019-Dec-14 16:03 323 1 3.3
2019-Dec-14 15:53 323 3.3
2019-Dec-14 15:43 323 3 2.8
2019-Dec-14 15:33 329 3 2.8
2019-Dec-14 15:23 337 4 2.8
2019-Dec-14 15:13 338 6 2.8
2019-Dec-14 15:03 339 7 2.8
2019-Dec-14 14:53 337 7 2.8
2019-Dec-14 14:43 336 6 2.8
2019-Dec-14 14:33 331 6 2.8
2019-Dec-14 14:23 328 3 2.8
2019-Dec-14 14:13 328 2 2.8
2019-Dec-14 14:03 328 2 2.8
2019-Dec-14 13:53 328 4 2.8
2019-Dec-14 13:43 328 2 2.8
2019-Dec-14 13:33 328 3 2.8
2019-Dec-14 13:23 328 2 2.8
2019-Dec-14 13:13 328 3 2.8
2019-Dec-14 13:03 328 2 2.8
2019-Dec-14 12:53 328 3 2.8
2019-Dec-14 12:43 328 2 2.8
2019-Dec-14 12:33 328 3 2.2
2019-Dec-14 12:23 328 2 2.2
2019-Dec-14 12:13 328 3 2.2
2019-Dec-14 12:03 323 3 2.2
2019-Dec-14 11:53 335 2 2.2
2019-Dec-14 11:43 327 6 2.2
2019-Dec-14 11:33 329 3 2.2
2019-Dec-14 11:23 338 5 2.2
2019-Dec-14 10:53 330 4 2.8
2019-Dec-14 10:43 331 3 2.2
2019-Dec-14 10:34 327 4 2.2
2019-Dec-14 10:23 333 4 2.2
2019-Dec-14 10:13 324 4 2.2
2019-Dec-14 10:03 330 2 2.2
2019-Dec-14 09:53 331 3 2.2
2019-Dec-14 09:43 332 4 2.2
2019-Dec-14 09:34 332 3 2.2
2019-Dec-14 09:23 334 5 2.2
2019-Dec-14 09:03 322 4 2.2
2019-Dec-14 08:53 333 4 2.2
2019-Dec-14 08:43 333 3 1.7
2019-Dec-14 08:33 334 6 1.7
2019-Dec-14 08:23 334 5 1.7
2019-Dec-14 08:13 333 5 1.7
2019-Dec-14 08:04 331 5 1.7
2019-Dec-14 07:53 328 5 2.2
2019-Dec-14 07:43 327 3 2.2
2019-Dec-14 07:34 322 3 1.7
2019-Dec-14 07:23 340 4 1.7
2019-Dec-14 07:13 335 6 1.7
2019-Dec-14 07:03 332 4 1.7
2019-Dec-14 06:53 323 4 1.7
2019-Dec-14 06:43 328 3 1.7
2019-Dec-14 06:34 334 4 1.7
2019-Dec-14 06:23 333 5 1.7
2019-Dec-14 06:13 341 4 2.2
2019-Dec-14 06:03 326 6 2.2
2019-Dec-14 05:53 321 2 1.7
2019-Dec-14 05:43 331 4 1.7
2019-Dec-14 05:34 333 4 1.7
2019-Dec-14 05:23 333 3 1.7
2019-Dec-14 05:13 328 4 1.1
2019-Dec-14 05:04 337 5 1.1
2019-Dec-14 04:53 334 5 1.7
2019-Dec-14 04:43 322 2 1.1
2019-Dec-14 04:34 340 6 1.7
2019-Dec-14 04:23 325 2 1.7
2019-Dec-14 04:13 325 2 1.7
2019-Dec-14 04:03 318 2 1.7
2019-Dec-14 03:53 320 2 1.7
2019-Dec-14 03:43 326 3 1.7
2019-Dec-14 03:33 350 0 1.1
2019-Dec-14 03:23 328 3 0.6
2019-Dec-14 03:13 331 3 0.6
2019-Dec-14 03:04 326 5 0.6
2019-Dec-14 02:53 329 4 0.6
2019-Dec-14 02:43 325 5 0.6
2019-Dec-14 02:34 328 4 -0.0
2019-Dec-14 02:23 329 6 -0.0
2019-Dec-14 02:13 328 2 0.6
2019-Dec-14 02:03 327 4 0.6
2019-Dec-14 01:53 326 0.6
2019-Dec-14 01:43 326 3 -0.0
2019-Dec-14 01:33 326 2 -0.0
2019-Dec-14 01:23 326 3 -0.0
2019-Dec-14 01:13 326 2 -0.0
2019-Dec-14 01:03 326 2 -0.0
2019-Dec-14 00:53 326 2 -0.0
2019-Dec-14 00:43 326 1 0.6
2019-Dec-14 00:33 326 2 0.6
2019-Dec-14 00:23 326 1 0.6
2019-Dec-14 00:13 326 1 1.1
2019-Dec-14 00:03 326 3 1.1
2019-Dec-13 23:53 326 1 1.1
2019-Dec-13 23:43 326 2 1.1
2019-Dec-13 23:33 326 2 0.6
2019-Dec-13 23:23 326 1 0.6
2019-Dec-13 23:13 326 3 0.6
2019-Dec-13 23:03 326 2 0.6